Location: Sobotiste
(48.7170°N, 17.4000°E)
Time: 08:30:07
(UTC+02:00)

YUBILEINY - Pass Details

Date: 16 March 2026
Orbit: 1477 x 1509 km, 82.5° (Epoch: 17 April)

Event Time Altitude Azimuth Distance (km) Brightness Sun altitude
Rises 05:02:28 0° 343° (NNW) 4,621 ? -10.6°
Reaches altitude 10° 05:06:10 10° 329° (NNW) 3,632 ? -10.0°
Maximum altitude 05:12:13 22° 284° (WNW) 2,814 ? -9.0°
Drops below altitude 10° 05:18:15 10° 239° (WSW) 3,611 ? -8.0°
Sets 05:21:56 0° 225° (SW) 4,586 ? -7.4°
